| time (UTC) | temp F | wind direction | speed knots | gust knots | rain 1hr in | rain 24hr in | rain mn in | humidity % | barometer mb |
| 20260504000507 | 72 | 290 | 0.9 | 4.3 | 0.00 | 0.00 | 0.00 | 70 | 1016.8 |
| 20260504000006 | 71 | 268 | 1.7 | 7.0 | 0.00 | 0.00 | 0.00 | 71 | 1016.8 |
| 20260503235504 | 71 | 250 | 2.6 | 7.0 | 0.00 | 0.00 | 0.00 | 71 | 1016.8 |
| 20260503235003 | 70 | 300 | 2.6 | 7.0 | 0.00 | 0.00 | 0.00 | 72 | 1016.8 |
| 20260503234502 | 70 | 284 | 1.7 | 7.0 | 0.00 | 0.00 | 0.00 | 74 | 1016.9 |
| 20260503234101 | 70 | 13 | 3.5 | 7.0 | 0.00 | 0.00 | 0.00 | 74 | 1016.9 |
| 20260503233600 | 69 | 284 | 2.6 | 7.0 | 0.00 | 0.00 | 0.00 | 75 | 1017.0 |
| 20260503233100 | 69 | 299 | 3.5 | 6.1 | 0.00 | 0.00 | 0.00 | 76 | 1017.0 |
| 20260503232558 | 69 | 266 | 2.6 | 7.8 | 0.00 | 0.00 | 0.00 | 76 | 1017.0 |
| 20260503232058 | 69 | 277 | 2.6 | 7.8 | 0.00 | 0.00 | 0.00 | 76 | 1017.0 |
| 20260503231556 | 68 | 296 | 2.6 | 5.2 | 0.00 | 0.00 | 0.00 | 78 | 1017.0 |
| 20260503231055 | 68 | 296 | 2.6 | 6.1 | 0.00 | 0.00 | 0.00 | 78 | 1017.0 |
| 20260503230553 | 68 | 268 | 2.6 | 7.8 | 0.00 | 0.00 | 0.00 | 79 | 1016.9 |
| 20260503230055 | 67 | 286 | 1.7 | 7.8 | 0.00 | 0.00 | 0.00 | 80 | 1016.9 |
| 20260503225551 | 67 | 291 | 2.6 | 7.8 | 0.00 | 0.00 | 0.00 | 81 | 1016.9 |
| 20260503225051 | 67 | 311 | 5.2 | 7.8 | 0.00 | 0.00 | 0.00 | 81 | 1016.9 |
| 20260503224552 | 67 | 278 | 3.5 | 7.0 | 0.00 | 0.00 | 0.00 | 81 | 1016.9 |
| 20260503224049 | 66 | 301 | 3.5 | 7.0 | 0.00 | 0.00 | 0.00 | 82 | 1016.9 |
| 20260503223548 | 66 | 340 | 3.5 | 7.8 | 0.00 | 0.00 | 0.00 | 83 | 1016.9 |
| 20260503223048 | 66 | 300 | 2.6 | 7.8 | 0.00 | 0.00 | 0.00 | 84 | 1016.9 |
| 20260503222548 | 65 | 309 | 2.6 | 7.0 | 0.00 | 0.00 | 0.00 | 85 | 1016.9 |
| 20260503222047 | 65 | 282 | 0.9 | 7.0 | 0.00 | 0.00 | 0.00 | 86 | 1016.9 |
| 20260503221547 | 64 | 328 | 1.7 | 7.0 | 0.00 | 0.00 | 0.00 | 87 | 1016.9 |
| 20260503221047 | 64 | 303 | 1.7 | 7.8 | 0.00 | 0.00 | 0.00 | 88 | 1016.9 |
| 20260503220548 | 63 | 290 | 1.7 | 5.2 | 0.00 | 0.00 | 0.00 | 89 | 1016.9 |
| 20260503220048 | 63 | 299 | 1.7 | 5.2 | 0.00 | 0.00 | 0.00 | 89 | 1016.8 |
| 20260503215547 | 63 | 300 | 1.7 | 4.3 | 0.00 | 0.00 | 0.00 | 90 | 1016.9 |
| 20260503215046 | 62 | 284 | 1.7 | 4.3 | 0.00 | 0.00 | 0.00 | 90 | 1016.9 |
| 20260503214546 | 62 | 334 | 1.7 | 3.5 | 0.00 | 0.00 | 0.00 | 91 | 1016.8 |
| 20260503214046 | 62 | 304 | 0.9 | 3.5 | 0.00 | 0.00 | 0.00 | 91 | 1016.8 |
| 20260503213546 | 61 | 5 | 1.7 | 4.3 | 0.00 | 0.00 | 0.00 | 92 | 1016.7 |
| 20260503213047 | 61 | 331 | 1.7 | 4.3 | 0.00 | 0.00 | 0.00 | 92 | 1016.6 |
| 20260503212545 | 61 | 327 | 0.0 | 0.9 | 0.00 | 0.00 | 0.00 | 91 | 1016.6 |
| 20260503212043 | 61 | 327 | 0.0 | 0.9 | 0.00 | 0.00 | 0.00 | 91 | 1016.5 |
| 20260503211543 | 61 | 39 | 0.0 | 2.6 | 0.00 | 0.00 | 0.00 | 90 | 1016.5 |
| 20260503211042 | 61 | 39 | 0.0 | 2.6 | 0.00 | 0.00 | 0.00 | 90 | 1016.5 |
| 20260503210541 | 61 | 317 | 0.0 | 1.7 | 0.00 | 0.00 | 0.00 | 90 | 1016.3 |
| 20260503210039 | 61 | 317 | 0.0 | 1.7 | 0.00 | 0.00 | 0.00 | 90 | 1016.2 |
| 20260503205538 | 61 | 317 | 0.0 | 2.6 | 0.00 | 0.00 | 0.00 | 90 | 1016.2 |
| 20260503205040 | 61 | 317 | 0.9 | 3.5 | 0.00 | 0.00 | 0.00 | 90 | 1016.2 |
| 20260503204535 | 61 | 337 | 0.0 | 3.5 | 0.00 | 0.00 | 0.00 | 89 | 1016.1 |
| 20260503204033 | 62 | 338 | 0.0 | 2.6 | 0.00 | 0.00 | 0.00 | 89 | 1016.0 |
| 20260503203534 | 62 | 282 | 0.9 | 2.6 | 0.00 | 0.00 | 0.00 | 89 | 1016.0 |
| 20260503203036 | 62 | 311 | 0.0 | 3.5 | 0.00 | 0.00 | 0.00 | 89 | 1015.9 |
| 20260503202532 | 62 | 355 | 0.0 | 3.5 | 0.00 | 0.00 | 0.00 | 89 | 1015.7 |
| 20260503202034 | 62 | 333 | 0.9 | 4.3 | 0.00 | 0.00 | 0.00 | 89 | 1015.7 |
| 20260503201529 | 62 | 319 | 0.9 | 4.3 | 0.00 | 0.00 | 0.00 | 89 | 1015.7 |
| 20260503201029 | 62 | 305 | 0.0 | 4.3 | 0.00 | 0.00 | 0.00 | 89 | 1015.6 |
| 20260503200531 | 62 | 297 | 0.9 | 4.3 | 0.00 | 0.00 | 0.00 | 89 | 1015.6 |
| 20260503200028 | 62 | 331 | 0.9 | 4.3 | 0.00 | 0.00 | 0.00 | 88 | 1015.6 |
| 20260503195527 | 62 | 325 | 1.7 | 4.3 | 0.00 | 0.00 | 0.00 | 88 | 1015.6 |
| 20260503195026 | 62 | 328 | 0.9 | 3.5 | 0.00 | 0.00 | 0.00 | 88 | 1015.6 |
| 20260503194527 | 63 | 355 | 0.0 | 3.5 | 0.00 | 0.00 | 0.00 | 88 | 1015.5 |
| 20260503194026 | 63 | 348 | 0.9 | 3.5 | 0.00 | 0.00 | 0.00 | 88 | 1015.4 |
| 20260503193527 | 63 | 316 | 0.9 | 3.5 | 0.00 | 0.00 | 0.00 | 88 | 1015.3 |
| 20260503193025 | 63 | 355 | 0.9 | 3.5 | 0.00 | 0.00 | 0.00 | 88 | 1015.2 |
| 20260503192524 | 63 | 321 | 0.9 | 3.5 | 0.00 | 0.00 | 0.00 | 88 | 1015.2 |
| 20260503192029 | 63 | 330 | 0.9 | 3.5 | 0.00 | 0.00 | 0.00 | 88 | 1015.1 |
| 20260503191524 | 63 | 326 | 0.9 | 3.5 | 0.00 | 0.00 | 0.00 | 88 | 1015.1 |
| 20260503191024 | 63 | 321 | 1.7 | 3.5 | 0.00 | 0.00 | 0.00 | 88 | 1015.1 |
| 20260503190524 | 63 | 346 | 1.7 | 4.3 | 0.00 | 0.00 | 0.00 | 88 | 1015.1 |
| 20260503190025 | 63 | 313 | 1.7 | 6.1 | 0.00 | 0.00 | 0.00 | 87 | 1015.2 |
| 20260503185524 | 63 | 293 | 1.7 | 6.1 | 0.00 | 0.00 | 0.00 | 88 | 1015.2 |
| 20260503185022 | 63 | 324 | 1.7 | 5.2 | 0.00 | 0.00 | 0.00 | 87 | 1015.1 |
| 20260503184522 | 63 | 324 | 1.7 | 5.2 | 0.00 | 0.00 | 0.00 | 87 | 1015.2 |
| 20260503184021 | 63 | 333 | 1.7 | 4.3 | 0.00 | 0.00 | 0.00 | 87 | 1015.3 |
| 20260503183521 | 64 | 284 | 1.7 | 4.3 | 0.00 | 0.00 | 0.00 | 86 | 1015.3 |
| 20260503183024 | 64 | 309 | 1.7 | 5.2 | 0.00 | 0.00 | 0.00 | 86 | 1015.2 |
| 20260503182520 | 64 | 299 | 1.7 | 7.0 | 0.00 | 0.00 | 0.00 | 86 | 1015.2 |
| 20260503182021 | 64 | 281 | 2.6 | 7.0 | 0.00 | 0.00 | 0.00 | 87 | 1015.1 |
| 20260503181520 | 63 | 277 | 2.6 | 5.2 | 0.00 | 0.00 | 0.00 | 87 | 1015.1 |
| 20260503181022 | 63 | 340 | 2.6 | 7.0 | 0.00 | 0.00 | 0.00 | 88 | 1015.2 |
| 20260503180519 | 63 | 297 | 1.7 | 6.1 | 0.00 | 0.00 | 0.00 | 88 | 1015.1 |
| 20260503180018 | 63 | 286 | 1.7 | 5.2 | 0.00 | 0.00 | 0.00 | 87 | 1015.1 |
| 20260503175517 | 63 | 275 | 1.7 | 5.2 | 0.00 | 0.00 | 0.00 | 87 | 1015.1 |
| 20260503175016 | 63 | 288 | 1.7 | 6.1 | 0.00 | 0.00 | 0.00 | 87 | 1015.2 |
| 20260503174519 | 64 | 317 | 2.6 | 7.0 | 0.00 | 0.00 | 0.00 | 87 | 1015.2 |
| 20260503174019 | 64 | 282 | 2.6 | 7.0 | 0.00 | 0.00 | 0.00 | 87 | 1015.2 |
| 20260503173515 | 64 | 332 | 2.6 | 7.0 | 0.00 | 0.00 | 0.00 | 87 | 1015.3 |
| 20260503173014 | 64 | 317 | 3.5 | 7.8 | 0.00 | 0.00 | 0.00 | 87 | 1015.3 |
| 20260503172517 | 64 | 311 | 3.5 | 7.8 | 0.00 | 0.00 | 0.00 | 87 | 1015.4 |
| 20260503172013 | 64 | 308 | 2.6 | 7.0 | 0.00 | 0.00 | 0.00 | 87 | 1015.5 |
| 20260503171511 | 64 | 342 | 2.6 | 5.2 | 0.00 | 0.00 | 0.00 | 87 | 1015.5 |
| 20260503171013 | 64 | 289 | 1.7 | 5.2 | 0.00 | 0.00 | 0.00 | 87 | 1015.6 |
| 20260503170512 | 64 | 323 | 2.6 | 4.3 | 0.00 | 0.00 | 0.00 | 87 | 1015.6 |
| 20260503150556 | 65 | 298 | 0.0 | 2.6 | 0.00 | 0.00 | 0.00 | 84 | 1016.4 |
| 20260503131044 | 66 | 289 | 1.7 | 4.3 | 0.00 | 0.00 | 0.00 | 83 | 1017.4 |
| 20260503130544 | 66 | 329 | 0.9 | 7.0 | 0.00 | 0.00 | 0.00 | 82 | 1017.5 |
| 20260503110541 | 67 | 5 | 0.9 | 5.2 | 0.00 | 0.00 | 0.00 | 80 | 1018.0 |
| 20260503081538 | 70 | 276 | 1.7 | 7.0 | 0.00 | 0.00 | 0.00 | 76 | 1017.6 |
| 20260503081034 | 70 | 110 | 0.9 | 7.0 | 0.00 | 0.00 | 0.00 | 76 | 1017.6 |
| 20260503080537 | 70 | 128 | 1.7 | 7.0 | 0.00 | 0.00 | 0.00 | 76 | 1017.6 |
| 20260503072533 | 71 | 18 | 0.9 | 5.2 | 0.00 | 0.00 | 0.00 | 76 | 1017.3 |
| 20260503072035 | 71 | 5 | 0.9 | 5.2 | 0.00 | 0.00 | 0.00 | 76 | 1017.3 |
| 20260503071552 | 71 | 360 | 0.9 | 8.7 | 0.00 | 0.00 | 0.00 | 76 | 1017.3 |
| 20260503071032 | 71 | 71 | 2.6 | 8.7 | 0.00 | 0.00 | 0.00 | 76 | 1017.3 |
| 20260503070532 | 72 | 138 | 0.9 | 7.0 | 0.00 | 0.00 | 0.00 | 75 | 1017.3 |
| 20260503055027 | 75 | 18 | 0.0 | 4.3 | 0.00 | 0.00 | 0.00 | 64 | 1017.5 |
| 20260503054529 | 75 | 275 | 0.9 | 4.3 | 0.00 | 0.00 | 0.00 | 66 | 1017.5 |
| 20260503054027 | 75 | 21 | 0.9 | 2.6 | 0.00 | 0.00 | 0.00 | 67 | 1017.5 |
| 20260503053528 | 76 | 163 | 0.0 | 7.8 | 0.00 | 0.00 | 0.00 | 67 | 1017.5 |
| 20260503053035 | 76 | 24 | 0.9 | 7.8 | 0.00 | 0.00 | 0.00 | 68 | 1017.6 |
| 20260503052526 | 76 | 188 | 0.9 | 5.2 | 0.00 | 0.00 | 0.00 | 67 | 1017.6 |
| 20260503052028 | 76 | 68 | 0.9 | 5.2 | 0.00 | 0.00 | 0.00 | 66 | 1017.6 |
| 20260503051529 | 76 | 23 | 0.9 | 3.5 | 0.00 | 0.00 | 0.00 | 66 | 1017.6 |
| 20260503051025 | 76 | 24 | 1.7 | 3.5 | 0.00 | 0.00 | 0.00 | 65 | 1017.8 |
| 20260503050524 | 77 | 55 | 0.9 | 2.6 | 0.00 | 0.00 | 0.00 | 64 | 1017.7 |
| 20260503050023 | 77 | 134 | 0.9 | 3.5 | 0.00 | 0.00 | 0.00 | 64 | 1017.7 |
| 20260503045523 | 78 | 294 | 1.7 | 3.5 | 0.00 | 0.00 | 0.00 | 62 | 1017.8 |
| 20260503045023 | 78 | 63 | 0.9 | 5.2 | 0.00 | 0.00 | 0.00 | 59 | 1017.8 |
| 20260503044541 | 79 | 331 | 0.9 | 5.2 | 0.00 | 0.00 | 0.00 | 55 | 1017.9 |
| 20260503044026 | 79 | 267 | 1.7 | 9.6 | 0.00 | 0.00 | 0.00 | 51 | 1017.9 |
| 20260503043521 | 79 | 309 | 3.5 | 9.6 | 0.00 | 0.00 | 0.00 | 50 | 1017.8 |
| 20260503043037 | 79 | 51 | 1.7 | 7.0 | 0.00 | 0.00 | 0.00 | 51 | 1017.8 |
| 20260503042520 | 79 | 254 | 1.7 | 7.8 | 0.00 | 0.00 | 0.00 | 51 | 1017.9 |
| 20260503042020 | 80 | 333 | 1.7 | 7.8 | 0.00 | 0.00 | 0.00 | 52 | 1018.0 |
| 20260503041520 | 80 | 263 | 0.9 | 6.1 | 0.00 | 0.00 | 0.00 | 53 | 1018.0 |
| 20260503041019 | 80 | 254 | 0.9 | 6.1 | 0.00 | 0.00 | 0.00 | 52 | 1018.1 |
| 20260503040519 | 80 | 172 | 0.9 | 6.1 | 0.00 | 0.00 | 0.00 | 50 | 1018.0 |
| 20260503040018 | 80 | 173 | 0.9 | 7.8 | 0.00 | 0.00 | 0.00 | 50 | 1018.0 |
| 20260503035517 | 80 | 163 | 3.5 | 7.8 | 0.00 | 0.00 | 0.00 | 50 | 1018.1 |
| 20260503035016 | 80 | 173 | 0.9 | 5.2 | 0.00 | 0.00 | 0.00 | 54 | 1018.1 |
| 20260503034515 | 79 | 261 | 0.0 | 7.0 | 0.00 | 0.00 | 0.00 | 51 | 1018.2 |
| 20260503034013 | 79 | 309 | 0.9 | 7.8 | 0.00 | 0.00 | 0.00 | 51 | 1018.2 |
| 20260503033517 | 79 | 70 | 1.7 | 9.6 | 0.00 | 0.00 | 0.00 | 51 | 1018.2 |
| 20260503033011 | 79 | 263 | 3.5 | 8.7 | 0.00 | 0.00 | 0.00 | 52 | 1018.4 |
| 20260503032510 | 79 | 306 | 0.9 | 10.4 | 0.00 | 0.00 | 0.00 | 51 | 1018.4 |
| 20260503032016 | 79 | 316 | 4.3 | 10.4 | 0.00 | 0.00 | 0.00 | 50 | 1018.5 |
| 20260503031509 | 79 | 288 | 2.6 | 7.8 | 0.00 | 0.00 | 0.00 | 51 | 1018.5 |
| 20260503031009 | 79 | 5 | 1.7 | 7.0 | 0.00 | 0.00 | 0.00 | 52 | 1018.6 |
| 20260503030507 | 79 | 306 | 1.7 | 7.0 | 0.00 | 0.00 | 0.00 | 52 | 1018.6 |
| 20260503030007 | 79 | 49 | 2.6 | 9.6 | 0.00 | 0.00 | 0.00 | 52 | 1018.7 |
| 20260503025506 | 78 | 270 | 2.6 | 9.6 | 0.00 | 0.00 | 0.00 | 52 | 1018.8 |
| 20260503025005 | 79 | 29 | 2.6 | 7.0 | 0.00 | 0.00 | 0.00 | 53 | 1018.9 |
| 20260503024504 | 79 | 321 | 0.9 | 7.8 | 0.00 | 0.00 | 0.00 | 53 | 1018.9 |
| 20260503024006 | 79 | 212 | 0.9 | 6.1 | 0.00 | 0.00 | 0.00 | 52 | 1019.1 |
| 20260503023503 | 78 | 49 | 1.7 | 8.7 | 0.00 | 0.00 | 0.00 | 53 | 1019.1 |
| 20260503023001 | 79 | 302 | 2.6 | 8.7 | 0.00 | 0.00 | 0.00 | 52 | 1019.2 |
| 20260503022559 | 78 | 257 | 1.7 | 7.0 | 0.00 | 0.00 | 0.00 | 53 | 1019.3 |
| 20260503022102 | 78 | 332 | 0.9 | 7.8 | 0.00 | 0.00 | 0.00 | 54 | 1019.4 |
| 20260503021601 | 78 | 308 | 1.7 | 7.8 | 0.00 | 0.00 | 0.00 | 54 | 1019.5 |
| 20260503021056 | 78 | 290 | 3.5 | 12.2 | 0.00 | 0.00 | 0.00 | 54 | 1019.6 |
| 20260503020555 | 77 | 345 | 2.6 | 9.6 | 0.00 | 0.00 | 0.00 | 55 | 1019.7 |
| 20260503020057 | 77 | 15 | 2.6 | 9.6 | 0.00 | 0.00 | 0.00 | 54 | 1019.7 |
| 20260503015551 | 77 | 312 | 1.7 | 8.7 | 0.00 | 0.00 | 0.00 | 56 | 1019.9 |
| 20260503015050 | 77 | 29 | 1.7 | 8.7 | 0.00 | 0.00 | 0.00 | 57 | 1020.0 |
| 20260503014550 | 77 | 243 | 2.6 | 8.7 | 0.00 | 0.00 | 0.00 | 56 | 1020.1 |
| 20260503014049 | 77 | 288 | 2.6 | 7.8 | 0.00 | 0.00 | 0.00 | 57 | 1020.2 |
| 20260503013549 | 76 | 332 | 0.9 | 9.6 | 0.00 | 0.00 | 0.00 | 59 | 1020.3 |
| 20260503013046 | 76 | 281 | 3.5 | 9.6 | 0.00 | 0.00 | 0.00 | 59 | 1020.5 |
| 20260503012546 | 76 | 271 | 3.5 | 7.8 | 0.00 | 0.00 | 0.00 | 59 | 1020.6 |
| 20260503012044 | 75 | 283 | 1.7 | 7.8 | 0.00 | 0.00 | 0.00 | 60 | 1020.6 |
| 20260503011550 | 75 | 284 | 1.7 | 9.6 | 0.00 | 0.00 | 0.00 | 60 | 1020.6 |
| 20260503011042 | 75 | 260 | 4.3 | 9.6 | 0.00 | 0.00 | 0.00 | 60 | 1020.7 |
| 20260503010540 | 75 | 45 | 1.7 | 7.8 | 0.00 | 0.00 | 0.00 | 60 | 1020.9 |
| 20260503010041 | 75 | 270 | 2.6 | 8.7 | 0.00 | 0.00 | 0.00 | 60 | 1020.9 |
| 20260503005538 | 75 | 273 | 2.6 | 8.7 | 0.00 | 0.00 | 0.00 | 62 | 1021.0 |
| 20260503005037 | 74 | 184 | 2.6 | 9.6 | 0.00 | 0.00 | 0.00 | 63 | 1020.9 |
| 20260503004537 | 74 | 306 | 4.3 | 9.6 | 0.00 | 0.00 | 0.00 | 63 | 1021.0 |
| 20260503004035 | 74 | 44 | 0.9 | 9.6 | 0.00 | 0.00 | 0.00 | 64 | 1021.2 |
| 20260503003534 | 74 | 327 | 2.6 | 8.7 | 0.00 | 0.00 | 0.00 | 64 | 1021.2 |
| 20260503003033 | 73 | 149 | 1.7 | 13.0 | 0.00 | 0.00 | 0.00 | 64 | 1021.3 |
| 20260503002532 | 73 | 294 | 5.2 | 13.0 | 0.00 | 0.00 | 0.00 | 63 | 1021.3 |
| 20260503002032 | 73 | 338 | 2.6 | 8.7 | 0.00 | 0.00 | 0.00 | 64 | 1021.5 |
| 20260503001530 | 73 | 322 | 2.6 | 7.0 | 0.00 | 0.00 | 0.00 | 65 | 1021.5 |
| 20260503001032 | 73 | 306 | 2.6 | 7.8 | 0.00 | 0.00 | 0.00 | 65 | 1021.6 |